Location: Arboyeti
(42.1122°N, 44.6017°E)
Time: 09:40:43
(UTC+00:00)

SL-19 R/B - Pass Details

Date: 19 April 2021
Orbit: 796 x 1008 km, 99.4° (Epoch: 05 May)

Event Time Altitude Azimuth Distance (km) Brightness Sun altitude
Rises 22:57:58 0° 13° (NNE) 3,718 8.6 -30.0°
Reaches altitude 10° 23:00:29 10° 13° (NNE) 2,746 7.7 -29.7°
Enters shadow 23:06:40 83° 288° (WNW) 965 4.3 -29.1°
